Location: Allaines
(49.9632°N, 2.9458°E)
Time: 09:38:13
(UTC+00:00)

STARLINK-60 - Pass Details

Date: 09 April 2020
Orbit: 389 x 399 km, 53.0° (Epoch: 25 May)

Event Time Altitude Azimuth Distance (km) Brightness Sun altitude
Rises 18:50:17 0° 226° (SW) 2,346 7.3 -3.5°
Reaches altitude 10° 18:52:25 10° 219° (SW) 1,485 6.1 -3.8°
Drops below altitude 10° 18:58:45 10° 76° (ENE) 1,486 5.3 -4.8°
Enters shadow 19:00:41 - 69° (ENE) 2,257 6.3 -5.1°
Exits shadow 19:31:18 -66° 64° (ENE) 12,092 10.3 -9.6°
Maximum altitude 20:31:52 59° 346° (NNW) 480 3.5 -17.9°
